Location: Clanezzo
(45.7500°N, 9.6000°E)
Time: 10:03:29
(UTC+00:00)

CUTE-I - Pass Details

Date: 03 December 2023
Orbit: 807 x 823 km, 98.7° (Epoch: 02 March)

Event Time Altitude Azimuth Distance (km) Brightness Sun altitude
Rises 17:23:45 0° 187° (S) 3,310 ? -17.7°
Reaches altitude 10° 17:26:14 10° 195° (SSW) 2,385 ? -18.2°
Maximum altitude 17:31:07 38° 263° (W) 1,221 ? -19.0°
Drops below altitude 10° 17:36:04 10° 331° (NNW) 2,410 ? -19.8°
Sets 17:38:36 0° 339° (NNW) 3,349 ? -20.3°
